Weather History for Mammoth, CA

Change the Weather History Date:

Wednesday, February 6, 2013

  Actual Average Record
Temperature  
Mean Temperature 32 °F -  
Max Temperature 48 °F 34 °F 48 °F (2000)
Min Temperature 15 °F 20 °F 8 °F (2012)
Degree Days  
Heating Degree Days 32    
Moisture  
Dew Point 7 °F    
Average Humidity 42    
Maximum Humidity 86    
Minimum Humidity 11    
Precipitation  
Precipitation 0.00 in - - ()
Sea Level Pressure  
Sea Level Pressure 30.09 in    
Wind  
Wind Speed 4 mph (NW)    
Max Wind Speed 9 mph    
Max Gust Speed -    
Visibility 10 miles    
Events      
Averages and records for this station are not official NWS values.
T = Trace of Precipitation, MM = Missing Value Source: NWS Daily Summary

Daily Weather History Graph

Daily Weather History Graph

Search for Another Location

Airport:

Trip Planner

Search our weather history database for the weather conditions in past years. The results will help you decide how hot, cold, wet, or windy it might be!

Date:

Astronomy

Feb. 06, 2013 Rise Set
Actual Time 6:54 AM PST 5:25 PM PST
Civil Twilight 6:26 AM PST 5:52 PM PST
Nautical Twilight 5:55 AM PST 6:23 PM PST
Astronomical Twilight 5:25 AM PST 6:54 PM PST
Moon 3:40 AM PST (2/6) 1:50 PM PST (2/6)
Length of Visible Light 11h 25m
Length of Day
10h 31m
Waning Crescent, 16% of the Moon is Illuminated
Feb 6
Waning Crescent
Feb 9
New
Feb 17
First Quarter
Feb 25
Full
Mar 4
Last Quarter

Hourly Weather History & Observations

Time (PST) Temp. Windchill Dew Point Humidity Pressure Visibility Wind Dir Wind Speed Gust Speed Precip Events Conditions
12:15 AM 32.0 °F 25.6 °F 17.6 °F 55% 30.05 in 10.0 mi West 6.9 mph - N/A   Clear
12:35 AM 32.0 °F 24.2 °F 17.6 °F 55% 30.04 in 10.0 mi WNW 9.2 mph - N/A   Clear
12:55 AM 30.2 °F 23.4 °F 17.6 °F 60% 30.03 in 10.0 mi NW 6.9 mph - N/A   Clear
1:15 AM 26.6 °F 20.0 °F 15.8 °F 64% 30.03 in 10.0 mi East 5.8 mph - N/A   Clear
1:35 AM 26.6 °F 19.1 °F 15.8 °F 64% 30.04 in 10.0 mi South 6.9 mph - N/A   Clear
2:15 AM 26.6 °F 22.6 °F 10.4 °F 51% 30.04 in 10.0 mi NNE 3.5 mph - N/A   Clear
2:35 AM 26.6 °F 21.2 °F 12.2 °F 55% 30.05 in 10.0 mi NE 4.6 mph - N/A   Clear
2:55 AM 26.6 °F 19.1 °F 12.2 °F 55% 30.04 in 10.0 mi SW 6.9 mph - N/A   Clear
3:15 AM 24.8 °F - 10.4 °F 54% 30.05 in 10.0 mi Calm Calm - N/A   Clear
3:35 AM 24.8 °F 19.1 °F 12.2 °F 59% 30.05 in 10.0 mi SW 4.6 mph - N/A   Clear
4:15 AM 21.2 °F - 10.4 °F 63% 30.05 in 10.0 mi Calm Calm - N/A   Clear
4:35 AM 21.2 °F 14.9 °F 10.4 °F 63% 30.05 in 10.0 mi NNW 4.6 mph - N/A   Clear
5:15 AM 23.0 °F 18.4 °F 6.8 °F 50% 30.05 in 10.0 mi NW 3.5 mph - N/A   Clear
5:35 AM 23.0 °F - 6.8 °F 50% 30.05 in 10.0 mi Calm Calm - N/A   Clear
5:55 AM 23.0 °F - 5.0 °F 46% 30.05 in 10.0 mi Calm Calm - N/A   Clear
6:15 AM 23.0 °F - 6.8 °F 50% 30.06 in 10.0 mi Calm Calm - N/A   Clear
6:35 AM 21.2 °F - 5.0 °F 50% 30.07 in 10.0 mi Calm Calm - N/A   Clear
6:55 AM 21.2 °F - 5.0 °F 50% 30.07 in 10.0 mi Calm Calm - N/A   Clear
7:15 AM 21.2 °F 16.4 °F 6.8 °F 54% 30.07 in 10.0 mi NW 3.5 mph - N/A   Clear
7:35 AM 19.4 °F 14.3 °F 6.8 °F 58% 30.08 in 10.0 mi North 3.5 mph - N/A   Clear
8:15 AM 26.6 °F 21.2 °F 6.8 °F 43% 30.09 in 10.0 mi NNW 4.6 mph - N/A   Clear
8:35 AM 30.2 °F 25.4 °F 5.0 °F 34% 30.10 in 10.0 mi West 4.6 mph - N/A   Clear
8:55 AM 32.0 °F - 5.0 °F 32% 30.10 in 10.0 mi Calm Calm - N/A   Clear
9:15 AM 32.0 °F 25.6 °F 8.6 °F 38% 30.11 in 10.0 mi SE 6.9 mph - N/A   Clear
9:35 AM 33.8 °F - 5.0 °F 30% 30.12 in 10.0 mi Calm Calm - N/A   Clear
10:15 AM 39.2 °F 37.0 °F -0.4 °F 19% 30.13 in 10.0 mi West 3.5 mph - N/A   Clear
10:35 AM 41.0 °F - -0.4 °F 18% 30.13 in 10.0 mi Calm Calm - N/A   Clear
11:15 AM 42.8 °F - -2.2 °F 15% 30.14 in 10.0 mi Calm Calm - N/A   Clear
11:35 AM 42.8 °F - -0.4 °F 16% 30.13 in 10.0 mi Calm Calm - N/A   Clear
11:55 AM 44.6 °F 42.2 °F -0.4 °F 15% 30.12 in 10.0 mi NNW 4.6 mph - N/A   Clear
12:15 PM 44.6 °F - -2.2 °F 14% 30.12 in 10.0 mi Calm Calm - N/A   Clear
12:35 PM 46.4 °F 45.2 °F -4.0 °F 12% 30.11 in 10.0 mi West 3.5 mph - N/A   Clear
12:55 PM 48.2 °F - -4.0 °F 11% 30.11 in 10.0 mi West 3.5 mph - N/A   Clear
1:35 PM 48.2 °F - -4.0 °F 11% 30.10 in 10.0 mi Calm Calm - N/A   Clear
1:55 PM 48.2 °F - -4.0 °F 11% 30.09 in 10.0 mi Calm Calm - N/A   Clear
2:15 PM 48.2 °F - -2.2 °F 12% 30.09 in 10.0 mi East 3.5 mph - N/A   Clear
2:35 PM 46.4 °F - -2.2 °F 13% 30.09 in 10.0 mi Calm Calm - N/A   Clear
2:55 PM 48.2 °F - -0.4 °F 13% 30.09 in 10.0 mi SSE 5.8 mph - N/A   Clear
3:15 PM 46.4 °F 45.2 °F -2.2 °F 13% 30.09 in 10.0 mi SSW 3.5 mph - N/A   Clear
3:35 PM 46.4 °F - -2.2 °F 13% 30.09 in 10.0 mi Calm Calm - N/A   Clear
3:55 PM 46.4 °F 44.3 °F -2.2 °F 13% 30.10 in 10.0 mi NW 4.6 mph - N/A   Clear
4:35 PM 44.6 °F 42.2 °F 5.0 °F 20% 30.10 in 10.0 mi SSW 4.6 mph - N/A   Clear
4:55 PM 39.2 °F 35.9 °F 6.8 °F 26% 30.10 in 10.0 mi SSW 4.6 mph - N/A   Clear
5:15 PM 35.6 °F - 6.8 °F 30% 30.10 in 10.0 mi Calm Calm - N/A   Clear
5:35 PM 35.6 °F - 6.8 °F 30% 30.10 in 10.0 mi Calm Calm - N/A   Clear
5:55 PM 32.0 °F 27.5 °F 8.6 °F 38% 30.11 in 10.0 mi West 4.6 mph - N/A   Clear
6:15 PM 32.0 °F - 8.6 °F 38% 30.11 in 10.0 mi Calm Calm - N/A   Clear
6:35 PM 32.0 °F - 8.6 °F 38% 30.12 in 10.0 mi North - - N/A   Clear
6:55 PM 30.2 °F 26.7 °F 10.4 °F 44% 30.12 in 10.0 mi WNW 3.5 mph - N/A   Clear
7:15 PM 28.4 °F 23.3 °F 10.4 °F 47% 30.12 in 10.0 mi North 4.6 mph - N/A   Clear
7:35 PM 26.6 °F 21.2 °F 12.2 °F 55% 30.13 in 10.0 mi North 4.6 mph - N/A   Clear
8:15 PM 26.6 °F - 12.2 °F 55% 30.12 in 10.0 mi Calm Calm - N/A   Clear
8:35 PM 24.8 °F 16.1 °F 12.2 °F 59% 30.13 in 10.0 mi WNW 8.1 mph - N/A   Clear
9:15 PM 23.0 °F 17.0 °F 12.2 °F 63% 30.13 in 10.0 mi North 4.6 mph - N/A   Clear
9:35 PM 23.0 °F 17.0 °F 12.2 °F 63% 30.13 in 10.0 mi NNE 4.6 mph - N/A   Clear
9:55 PM 23.0 °F 18.4 °F 12.2 °F 63% 30.13 in 10.0 mi NNW 3.5 mph - N/A   Clear
10:15 PM 23.0 °F - 10.4 °F 59% 30.13 in 10.0 mi Calm Calm - N/A   Clear
10:35 PM 21.2 °F 14.9 °F 12.2 °F 68% 30.13 in 10.0 mi NW 4.6 mph - N/A   Clear
10:55 PM 23.0 °F - 12.2 °F 63% 30.13 in 10.0 mi Calm Calm - N/A   Clear
11:15 PM 21.2 °F - 12.2 °F 68% 30.13 in 10.0 mi Calm Calm - N/A   Clear
11:35 PM 17.6 °F 12.3 °F 14.0 °F 86% 30.13 in 10.0 mi West 3.5 mph - N/A   Clear
11:55 PM 15.8 °F 10.2 °F 12.2 °F 86% 30.13 in 10.0 mi NNW 3.5 mph - N/A   Clear